Terminal Aerodrome Forecast
Issued by NWS Topeka, KS

Home | Current Version | Previous Version | Graphics & Text | Print | Product List | Glossary On
Versions: 1 2 3 4 5 6 7 8 9 10 11 12 13 14 15 16 17 18 19 20 21
000
FTUS43 KTOP 261100
TAFTOP
TAF
KTOP 261121Z 2612/2712 26010KT P6SM SCT080
     FM261600 31018G28KT P6SM BKN040
     FM262000 32015G24KT P6SM SCT040
     FM270100 34005KT P6SM SKC=

USA.gov is the U.S. government's official web portal to all federal, state and local government web resources and services.